SL-8 R/B, 1589

Orbit data source: Space-Track

SL-8 R/B, 1589 is space debris in LEO originally from a launch on Sat, 18 Sep 1965 UTC launched from the Tyuratam Missile And Space Complex (TTMTR). Debris objects in space refer to the collection of defunct objects orbiting the Earth. Examples of debris include non-operational satellites, rocket bodies, and fragments generated from explosions, collisions, or faulty payload assembly.

Loading next visibility...
Identifier
1589, 1965-073F
Orbit
LEO
Country
Flag of CISCIS
Related business
Manufacturer
Yuzhnoe
Mission
Spacecraft
Bus & Motor
S3, Unknown motor
Mass
1,434 kg wet, 1,434 kg dry
Launch date (UTC)
1965-09-18 (61 years ago)
Launch vehicle
Unknown
Launch site
Tyuratam Missile And Space Complex (TTMTR)
Object type
Payload
Rocket body
Debris
Shape & HBR
Unknown
Radar Cross Section
Large (>1 m²)

Expand to show TLE details & history
Last TLE update: 9 hours ago

TLE from 9 hours ago
0 SL-8 R/B
1  1589U 65073F   26119.64995911 -.00000077  00000-0  10229-3 0  9999
2  1589  56.0516 199.9037 0157269 316.3790 217.1350 12.33055238729712
Epoch: 2026-04-29T15:35Z
TLE epoch observation values (Epoch: 2026-04-29T15:35:56.467Z)
Latitude
6.22246°
Longitude
-75.87849°
Altitude
1,636.564 km
Speed
7.01 km/s
True Right ascension
01h 02m 51s
True Declination
6° 11' 22"
Sunlit
Object was in daylight at epoch
Visualization orbit readout
Latitude
Unknown
Longitude
Unknown
Altitude
Unknown
Speed
Unknown
Apparent Right ascension
Unknown
Apparent Declination
Unknown
Sunlit
N/A
Visualization observer readout
Local Sidereal Time
08:36:29
Azimuth
Unknown
Elevation
Unknown
Doppler factor
Unknown
Orbital elements
Apogee altitude
1,660.471 km
Perigee altitude
1,411.541 km
Semi-major axis
7,914.143 km
Eccentricity
0.01573
Inclination
56.0516°
RAAN
199.9037°
Arg. of periapsis
316.379°
True anomaly
216.0639°
Mean anomaly
217.135°
Eccentric anomaly
216.59778°
Mean motion
3.08274 °/min
Orbital period
116.78 mins
BSTAR
0.00010229
Loading maneuver chart data...
Computing Atmospheric mass density...
Loading historical data...
Loading historical data...
Loading historical data...
Loading historical data...
Loading historical data...
Loading historical data...
Loading historical data...

Documentation

Showing up to 5 results
|